Flag Weather past 2 weeks in Bamberg, Bavaria, Germany

Now
38 °F

Overcast.


Feels Like: 38 °F
Forecast: 31 / 42 °F
Wind: 2 mph from Southeast

Location: Bamberg

Current Time: Nov 26, 2014 at 10:42:33 PM

Latest Report: Nov 26, 2014 at 10:00 PM


Visibility: 7 mi

Pressure: 30.05 "Hg

Humidity: 82%

Dew point: 33 °F

Location of BambergLocation

Historic Weather in Bamberg — Graph

°F

Bamberg temperature yesterday

Maximum temperature yesterday: 45 °F (at 3:00 PM)
Minimum temperature yesterday: 29 °F (at 10:00 PM)
Average temperature yesterday: 36 °F

Past Weeks' High & Low Weather Summary

 TemperatureHumidityPressure
High56 °F (Nov 14, 3:00 PM)100% (Nov 11, 9:00 PM)30.37 "Hg (Nov 11, 9:00 PM)
Low24 °F (Nov 26, 8:00 AM)64% (Nov 21, 12:00 PM)29.50 "Hg (Nov 16, 3:00 AM)
Average41 °F94%30.01 "Hg
* Reported Nov 11 9:00 PM — Nov 26 9:00 PM, Bamberg, Weather by CustomWeather, © 2014

Note: Actual official high and low records may vary slightly from our data, if they occured in-between our weather recording intervals... More about our weather records

Advertising

Bamberg weather history for previous 24 hours

 ConditionsComfort  
Time TempWeatherWind HumidityBarometerVisibility
9:00 PM
Nov 26
37 °FPassing clouds.3 mph83%30.06 "Hg7 mi
8:00 PM38 °FOvercast.3 mph81%30.06 "Hg7 mi
7:00 PM38 °FOvercast.2 mph80%30.07 "Hg8 mi
6:00 PM39 °FOvercast.3 mph78%30.07 "Hg9 mi
5:00 PM38 °FOvercast.2 mph82%30.07 "Hg11 mi
4:00 PM41 °FOvercast.3 mph72%30.06 "Hg14 mi
3:00 PM43 °FOvercast.5 mph70%30.06 "Hg15 mi
2:00 PM43 °FOvercast.2 mph71%30.08 "Hg19 mi
1:00 PM42 °FOvercast.2 mph74%30.10 "Hg18 mi
12:00 PM38 °FFog.1 mph94%30.12 "Hg4 mi
11:00 AM31 °FFog.1 mph99%30.16 "Hg2 mi
10:00 AM29 °FFog.1 mph100%30.17 "Hg2 mi
9:00 AM26 °FFog.1 mph100%30.18 "Hg3 mi
8:00 AM24 °FFog.1 mph99%30.19 "Hg4 mi
7:00 AM25 °FFog.1 mph100%30.18 "Hg3 mi
6:00 AM25 °FFog.1 mph100%30.18 "Hg4 mi
5:00 AM26 °FFog.1 mph100%30.19 "Hg4 mi
4:00 AM26 °FFog.1 mph100%30.20 "Hg3 mi
3:00 AM26 °FFog.1 mph100%30.21 "Hg4 mi
2:00 AM27 °FFog.1 mph100%30.22 "Hg3 mi
1:00 AM28 °FFog.1 mph100%30.24 "Hg2 mi
12:00 AM28 °FFog.1 mph100%30.25 "Hg3 mi
11:00 PM
Nov 25
29 °FFog.1 mph100%30.26 "Hg3 mi
10:00 PM29 °FFog.No wind100%30.27 "Hg2 mi
Weather by CustomWeather, © 2014

See weather overviewHow to use our weather pages